Regional Weather Roundup
Issued by NWS Kansas City/Pleasant Hill, MO

Home | Current Version | Previous Version | Graphics & Text | Print | Product List | Glossary Off
Versions: 1 2 3 4 5 6 7 8 9 10 11 12 13 14 15 16 17 18 19 20 21 22 23 24 25 26 27 28

000
ASUS43 KEAX 272110
RWREAX

WEATHER ROUNDUP FOR EASTERN KANSAS AND NORTHWEST MISSOURI
NATIONAL WEATHER SERVICE KANSAS CITY/PLEASANT HILL MO
400 PM CDT WED APR 27 2016

KSZ040-057-103>105-MOZ028-029-037-043-272200-
...KANSAS CITY METROPOLITAN AREA...

CITY           SKY/WX    TMP DP  RH WIND       PRES   REMARKS
K.C. INTL      TSTM      67  54  63 S23G31    29.51F
K.C. DOWNTOWN  CLOUDY    71  53  52 SW16G25   29.50F THUNDER
LEES SUMMIT    PTSUNNY   70  54  56 S20G28    29.53F
OLATHE - IXD   MOSUNNY   69  54  58 SW26G36   29.55R
OLATHE - OJC   PTSUNNY   70  54  56 SW22G31   29.54S
LAWRENCE       CLOUDY    66  58  75 W14G25    29.56R

$$

MOZ001>008-011>017-020>025-030>033-038>040-044>046-053-054-272200-
...NORTHERN AND CENTRAL MISSOURI...

CITY           SKY/WX    TMP DP  RH WIND       PRES   REMARKS
ST. JOSEPH     TSTM      55  51  86 SW13G25   29.52R FOG
MOSBY          CLOUDY    70  54  56 S13       29.51F
WHITEMAN AFB   MOSUNNY   73  58  57 S15       29.55F
CLINTON        MOSUNNY   73  57  56 S15G22    29.59F
SEDALIA        MOSUNNY   76  56  49 S14       29.60F
WARSAW         NOT AVBL
CHILLICOTHE      N/A     72  58  61 SE10      29.55F
KIRKSVILLE     PTSUNNY   67  60  78 E14       29.60F

$$

MOZ041-047>049-056>058-063>065-088>090-097-272200-
...EASTERN AND SOUTHERN MISSOURI...

CITY           SKY/WX    TMP DP  RH WIND       PRES   REMARKS
ST. LOUIS INTL PTSUNNY   75  59  57 S10G20    29.64F
SPIRIT OF STL  PTSUNNY   76  60  57 S8G16     29.61F
COLUMBIA       MOSUNNY   76  58  53 S12       29.59F
JEFFERSON CITY MOSUNNY   77  55  46 S13G18    29.58F
ROLLA          MOSUNNY   74  59  59 S10       29.60F
OSAGE BEACH    PTSUNNY   77  52  41 S9        29.61S
SPRINGFIELD    MOSUNNY   77  50  38 SW21G28   29.62S
BRANSON        MOSUNNY   77  50  38 W10G18    29.66S
JOPLIN         MOSUNNY   74  54  49 SW20G30   29.62F
WEST PLAINS    PTSUNNY   75  57  53 S12G20    29.65F

$$

IAZ060-094-KSZ022-034>040-054-083-096-NEZ052-066-093-272200-
...KANSAS...SOUTHEAST NEBRASKA AND IOWA...

CITY           SKY/WX    TMP DP  RH WIND       PRES   REMARKS
TOPEKA         CLOUDY    61  50  67 W18G29    29.56R
MANHATTAN      CLOUDY    58  45  62 W15G21    29.61R
EMPORIA        PTSUNNY   62  50  64 W16G24    29.62R
CHANUTE        SUNNY     68  51  54 W25G35    29.62R
WICHITA        MOSUNNY   65  46  50 W13       29.65F
OMAHA          TSTM      60  55  83 E17       29.50R
LINCOLN        CLOUDY    56  44  64 SW26G35   29.50R
FALLS CITY     RAIN      59  53  80 SW23G36   29.51R
LAMONI         PTSUNNY   62  58  86 E9G20     29.54F
DES MOINES     CLOUDY    52  49  89 E14G26    29.61F FOG

$$





USA.gov is the U.S. government's official web portal to all federal, state and local government web resources and services.